Time,TemperatureF,DewpointF,PressureIn,WindDirection,WindDirectionDegrees,WindSpeedMPH,WindSpeedGustMPH,Humidity,HourlyPrecipIn,Conditions,Clouds,dailyrainin,SoftwareType,DateUTC
2013-08-05 00:14:00,66.4,60.0,30.11,SSE,147,0.0,-999.0,81,-99.99,,,0.00,weatherlink.com 1.10,2013-08-05 04:14:00,
2013-08-05 00:29:00,66.4,60.0,30.10,SSE,147,0.0,-999.0,81,-99.99,,,0.00,weatherlink.com 1.10,2013-08-05 04:29:00,
2013-08-05 00:45:00,66.8,60.0,30.11,SSE,147,0.0,-999.0,80,-99.99,,,0.00,weatherlink.com 1.10,2013-08-05 04:45:00,
2013-08-05 01:00:00,67.2,61.0,30.11,SSE,147,0.0,-999.0,80,-99.99,,,0.00,weatherlink.com 1.10,2013-08-05 05:00:00,
2013-08-05 01:14:00,67.0,61.0,30.11,SSE,147,0.0,-999.0,80,-99.99,,,0.00,weatherlink.com 1.10,2013-08-05 05:14:00,
2013-08-05 01:30:00,66.3,60.0,30.11,SSE,147,0.0,-999.0,81,-99.99,,,0.00,weatherlink.com 1.10,2013-08-05 05:30:00,
2013-08-05 01:45:00,66.7,60.0,30.11,SSE,147,0.0,-999.0,80,-99.99,,,0.00,weatherlink.com 1.10,2013-08-05 05:45:00,
2013-08-05 02:00:00,66.9,61.0,30.11,SSE,147,0.0,-999.0,80,-99.99,,,0.00,weatherlink.com 1.10,2013-08-05 06:00:00,
2013-08-05 02:15:00,67.1,60.0,30.11,SSE,147,0.0,-999.0,79,-99.99,,,0.00,weatherlink.com 1.10,2013-08-05 06:15:00,
2013-08-05 02:30:00,66.2,60.0,30.11,SSE,147,0.0,-999.0,80,-99.99,,,0.00,weatherlink.com 1.10,2013-08-05 06:30:00,
2013-08-05 02:45:00,65.8,60.0,30.10,SSE,147,0.0,-999.0,80,-99.99,,,0.00,weatherlink.com 1.10,2013-08-05 06:45:00,
2013-08-05 03:00:00,65.5,59.0,30.10,SSE,147,0.0,-999.0,80,-99.99,,,0.00,weatherlink.com 1.10,2013-08-05 07:00:00,
2013-08-05 03:15:00,65.2,59.0,30.10,SSE,147,0.0,-999.0,81,-99.99,,,0.00,weatherlink.com 1.10,2013-08-05 07:15:00,
2013-08-05 03:30:00,64.8,59.0,30.10,SSE,147,0.0,-999.0,81,-99.99,,,0.00,weatherlink.com 1.10,2013-08-05 07:30:00,
2013-08-05 03:45:00,64.4,58.0,30.10,SSE,147,0.0,-999.0,81,-99.99,,,0.00,weatherlink.com 1.10,2013-08-05 07:45:00,
2013-08-05 04:01:00,65.5,59.0,30.10,ESE,115,0.0,-999.0,80,-99.99,,,0.00,weatherlink.com 1.10,2013-08-05 08:01:00,
2013-08-05 04:16:00,64.5,58.0,30.10,ESE,115,0.0,-999.0,80,-99.99,,,0.00,weatherlink.com 1.10,2013-08-05 08:16:00,
2013-08-05 04:31:00,64.4,58.0,30.09,ESE,115,0.0,-999.0,81,-99.99,,,0.00,weatherlink.com 1.10,2013-08-05 08:31:00,
2013-08-05 04:46:00,64.6,59.0,30.10,ESE,115,0.0,-999.0,81,-99.99,,,0.00,weatherlink.com 1.10,2013-08-05 08:46:00,
2013-08-05 05:46:00,64.6,58.0,30.10,ESE,115,0.0,-999.0,80,-99.99,,,0.00,weatherlink.com 1.10,2013-08-05 09:46:00,
2013-08-05 06:01:00,64.6,59.0,30.11,ESE,115,0.0,-999.0,81,-99.99,,,0.00,weatherlink.com 1.10,2013-08-05 10:01:00,
2013-08-05 06:16:00,64.7,59.0,30.11,ESE,115,0.0,-999.0,82,-99.99,,,0.00,weatherlink.com 1.10,2013-08-05 10:16:00,
2013-08-05 06:47:00,64.8,58.0,30.12,ESE,115,0.0,-999.0,79,-99.99,,,0.00,weatherlink.com 1.10,2013-08-05 10:47:00,
2013-08-05 07:01:00,64.2,58.0,30.13,ESE,115,0.0,-999.0,81,-99.99,,,0.00,weatherlink.com 1.10,2013-08-05 11:01:00,
2013-08-05 07:17:00,64.4,58.0,30.13,ESE,115,0.0,-999.0,81,-99.99,,,0.00,weatherlink.com 1.10,2013-08-05 11:17:00,
2013-08-05 07:32:00,64.5,59.0,30.14,ESE,115,0.0,-999.0,82,-99.99,,,0.00,weatherlink.com 1.10,2013-08-05 11:32:00,
2013-08-05 07:47:00,65.0,59.0,30.14,ESE,115,0.0,-999.0,82,-99.99,,,0.00,weatherlink.com 1.10,2013-08-05 11:47:00,
2013-08-05 08:02:00,66.3,59.0,30.14,ESE,115,0.0,-999.0,78,-99.99,,,0.00,weatherlink.com 1.10,2013-08-05 12:02:00,
2013-08-05 08:17:00,67.8,60.0,30.15,ESE,115,0.0,-999.0,77,-99.99,,,0.00,weatherlink.com 1.10,2013-08-05 12:17:00,
2013-08-05 08:32:00,68.7,60.0,30.15,ESE,115,0.0,-999.0,74,-99.99,,,0.00,weatherlink.com 1.10,2013-08-05 12:32:00,
2013-08-05 08:47:00,69.5,60.0,30.15,ESE,113,2.0,-999.0,72,-99.99,,,0.00,weatherlink.com 1.10,2013-08-05 12:47:00,
2013-08-05 09:18:00,70.2,59.0,30.15,ESE,113,0.0,-999.0,67,-99.99,,,0.00,weatherlink.com 1.10,2013-08-05 13:18:00,
2013-08-05 09:33:00,70.2,58.0,30.16,ENE,76,0.0,-999.0,65,-99.99,,,0.00,weatherlink.com 1.10,2013-08-05 13:33:00,
2013-08-05 09:48:00,70.5,59.0,30.15,ENE,73,1.0,-999.0,67,-99.99,,,0.00,weatherlink.com 1.10,2013-08-05 13:48:00,
2013-08-05 10:03:00,71.2,59.0,30.15,ENE,66,1.0,-999.0,65,-99.99,,,0.00,weatherlink.com 1.10,2013-08-05 14:03:00,
2013-08-05 10:18:00,72.2,60.0,30.15,East,98,0.0,-999.0,65,-99.99,,,0.00,weatherlink.com 1.10,2013-08-05 14:18:00,
2013-08-05 10:33:00,72.0,60.0,30.15,ENE,59,1.0,-999.0,66,-99.99,,,0.00,weatherlink.com 1.10,2013-08-05 14:33:00,
2013-08-05 10:48:00,72.2,61.0,30.15,ENE,66,1.0,-999.0,68,-99.99,,,0.00,weatherlink.com 1.10,2013-08-05 14:48:00,
2013-08-05 11:03:00,72.1,60.0,30.16,ENE,61,0.0,-999.0,65,-99.99,,,0.00,weatherlink.com 1.10,2013-08-05 15:03:00,
2013-08-05 11:18:00,73.0,61.0,30.16,ENE,76,1.0,-999.0,66,-99.99,,,0.00,weatherlink.com 1.10,2013-08-05 15:18:00,
2013-08-05 11:33:00,72.9,61.0,30.15,East,80,0.0,-999.0,66,-99.99,,,0.00,weatherlink.com 1.10,2013-08-05 15:33:00,
2013-08-05 12:04:00,76.3,62.0,30.14,NE,48,0.0,-999.0,61,-99.99,,,0.00,weatherlink.com 1.10,2013-08-05 16:04:00,
2013-08-05 12:34:00,77.1,63.0,30.13,ENE,68,1.0,-999.0,63,-99.99,,,0.00,weatherlink.com 1.10,2013-08-05 16:34:00,
2013-08-05 12:49:00,77.9,65.0,30.13,East,81,2.0,-999.0,65,-99.99,,,0.00,weatherlink.com 1.10,2013-08-05 16:49:00,
2013-08-05 13:04:00,77.9,65.0,30.13,NNE,15,0.0,-999.0,65,-99.99,,,0.00,weatherlink.com 1.10,2013-08-05 17:04:00,
2013-08-05 13:19:00,77.6,65.0,30.12,ENE,63,0.0,-999.0,65,-99.99,,,0.00,weatherlink.com 1.10,2013-08-05 17:19:00,
2013-08-05 13:49:00,77.4,65.0,30.11,SSW,195,0.0,-999.0,65,-99.99,,,0.00,weatherlink.com 1.10,2013-08-05 17:49:00,
2013-08-05 14:04:00,78.5,67.0,30.09,SSE,147,2.0,-999.0,68,-99.99,,,0.00,weatherlink.com 1.10,2013-08-05 18:04:00,
2013-08-05 14:35:00,81.1,66.0,30.09,NE,55,1.0,-999.0,61,-99.99,,,0.00,weatherlink.com 1.10,2013-08-05 18:35:00,
2013-08-05 14:50:00,80.5,68.0,30.08,ENE,57,0.0,-999.0,66,-99.99,,,0.00,weatherlink.com 1.10,2013-08-05 18:50:00,
2013-08-05 15:05:00,80.7,66.0,30.08,ENE,63,0.0,-999.0,62,-99.99,,,0.00,weatherlink.com 1.10,2013-08-05 19:05:00,
2013-08-05 15:20:00,77.7,67.0,30.08,ENE,63,0.0,-999.0,70,-99.99,,,0.00,weatherlink.com 1.10,2013-08-05 19:20:00,
2013-08-05 15:35:00,76.3,65.0,30.08,ENE,63,0.0,-999.0,69,-99.99,,,0.00,weatherlink.com 1.10,2013-08-05 19:35:00,
2013-08-05 15:50:00,78.5,68.0,30.07,ENE,71,0.0,-999.0,69,-99.99,,,0.00,weatherlink.com 1.10,2013-08-05 19:50:00,
2013-08-05 16:05:00,80.5,68.0,30.07,ENE,71,1.0,-999.0,65,-99.99,,,0.00,weatherlink.com 1.10,2013-08-05 20:05:00,
2013-08-05 16:20:00,77.6,66.0,30.07,ENE,74,0.0,-999.0,68,-99.99,,,0.00,weatherlink.com 1.10,2013-08-05 20:20:00,
2013-08-05 16:35:00,78.5,67.0,30.07,ENE,74,0.0,-999.0,68,-99.99,,,0.00,weatherlink.com 1.10,2013-08-05 20:35:00,
2013-08-05 16:50:00,79.6,67.0,30.06,ENE,71,0.0,-999.0,65,-99.99,,,0.00,weatherlink.com 1.10,2013-08-05 20:50:00,
2013-08-05 17:05:00,78.7,67.0,30.05,ENE,71,0.0,-999.0,68,-99.99,,,0.00,weatherlink.com 1.10,2013-08-05 21:05:00,
2013-08-05 17:20:00,78.2,67.0,30.05,ENE,71,0.0,-999.0,68,-99.99,,,0.00,weatherlink.com 1.10,2013-08-05 21:20:00,
2013-08-05 17:36:00,78.6,66.0,30.04,ENE,71,0.0,-999.0,66,-99.99,,,0.00,weatherlink.com 1.10,2013-08-05 21:36:00,
2013-08-05 17:51:00,79.1,67.0,30.04,West,264,0.0,-999.0,66,-99.99,,,0.00,weatherlink.com 1.10,2013-08-05 21:51:00,
2013-08-05 18:06:00,77.7,66.0,30.04,West,270,0.0,-999.0,68,-99.99,,,0.00,weatherlink.com 1.10,2013-08-05 22:06:00,
2013-08-05 18:21:00,77.3,66.0,30.04,NNE,24,0.0,-999.0,68,-99.99,,,0.00,weatherlink.com 1.10,2013-08-05 22:21:00,
2013-08-05 18:36:00,77.8,66.0,30.04,NNE,24,0.0,-999.0,66,-99.99,,,0.00,weatherlink.com 1.10,2013-08-05 22:36:00,
2013-08-05 18:51:00,77.8,66.0,30.05,NNE,24,0.0,-999.0,66,-99.99,,,0.00,weatherlink.com 1.10,2013-08-05 22:51:00,
2013-08-05 19:21:00,76.4,66.0,30.04,NNE,24,0.0,-999.0,70,-99.99,,,0.00,weatherlink.com 1.10,2013-08-05 23:21:00,
2013-08-05 20:06:00,73.7,65.0,30.05,NNE,24,0.0,-999.0,75,-99.99,,,0.00,weatherlink.com 1.10,2013-08-06 00:06:00,
2013-08-05 20:21:00,72.9,65.0,30.04,NNE,24,0.0,-999.0,77,-99.99,,,0.00,weatherlink.com 1.10,2013-08-06 00:21:00,
2013-08-05 20:36:00,72.1,65.0,30.05,NNE,24,0.0,-999.0,78,-99.99,,,0.00,weatherlink.com 1.10,2013-08-06 00:36:00,
2013-08-05 20:52:00,72.3,65.0,30.05,NNE,24,0.0,-999.0,79,-99.99,,,0.00,weatherlink.com 1.10,2013-08-06 00:52:00,
2013-08-05 21:22:00,71.3,65.0,30.05,NNE,24,0.0,-999.0,81,-99.99,,,0.00,weatherlink.com 1.10,2013-08-06 01:22:00,
2013-08-05 21:37:00,71.4,65.0,30.05,NNE,24,0.0,-999.0,81,-99.99,,,0.00,weatherlink.com 1.10,2013-08-06 01:37:00,
2013-08-05 21:52:00,71.6,66.0,30.06,NNE,24,0.0,-999.0,81,-99.99,,,0.00,weatherlink.com 1.10,2013-08-06 01:52:00,
2013-08-05 22:07:00,71.3,66.0,30.06,NNE,24,0.0,-999.0,82,-99.99,,,0.00,weatherlink.com 1.10,2013-08-06 02:07:00,
2013-08-05 22:22:00,71.2,66.0,30.06,NNE,24,0.0,-999.0,82,-99.99,,,0.00,weatherlink.com 1.10,2013-08-06 02:22:00,
2013-08-05 22:37:00,70.9,65.0,30.06,NNE,24,0.0,-999.0,81,-99.99,,,0.00,weatherlink.com 1.10,2013-08-06 02:37:00,
2013-08-05 22:52:00,71.0,65.0,30.06,ESE,111,0.0,-999.0,81,-99.99,,,0.04,weatherlink.com 1.10,2013-08-06 02:52:00,
2013-08-05 23:07:00,70.5,65.0,30.06,South,180,2.0,-999.0,82,-99.99,,,0.09,weatherlink.com 1.10,2013-08-06 03:07:00,
2013-08-05 23:22:00,69.7,65.0,30.07,East,89,0.0,-999.0,84,-99.99,,,0.10,weatherlink.com 1.10,2013-08-06 03:22:00,
2013-08-05 23:37:00,69.5,65.0,30.07,ESE,112,0.0,-999.0,85,-99.99,,,0.10,weatherlink.com 1.10,2013-08-06 03:37:00,
2013-08-05 23:52:00,69.4,65.0,30.07,ESE,113,0.0,-999.0,85,-99.99,,,0.12,weatherlink.com 1.10,2013-08-06 03:52:00,